Terminal Aerodrome Forecast
Issued by NWS Austin/San Antonio, TX

Home | Current Version | Previous Version | Text Only | Print | Product List | Glossary On
Versions: 1 2 3 4 5 6 7 8 9 10 11 12 13 14 15 16 17 18 19 20
000
FTUS44 KEWX 271127
TAFDRT
TAF
KDRT 271127Z 2712/2812 09008KT P6SM SKC
     FM271600 14015KT P6SM FEW050
     FM280200 10008KT P6SM SKC=

USA.gov is the U.S. government's official web portal to all federal, state and local government web resources and services.